Weather History for KDVT - May, 2013

Change the Weather History Date:

Saturday, May 25, 2013

  Actual Average Record
Temperature  
Mean Temperature 78 °F -  
Max Temperature 93 °F 94 °F 105 °F (2001)
Min Temperature 64 °F 68 °F 59 °F (2008)
Cooling Degree Days 14    
Growing Degree Days 28 (Base 50)    
Moisture  
Dew Point 22 °F    
Average Humidity 12    
Maximum Humidity 21    
Minimum Humidity 7    
Precipitation  
Precipitation 0.00 in - - ()
Sea Level Pressure  
Sea Level Pressure 29.81 in    
Wind  
Wind Speed 4 mph (SSW)    
Max Wind Speed 15 mph    
Max Gust Speed 21 mph    
Visibility 10 miles    
Events      
Averages and records for this station are not official NWS values.
T = Trace of Precipitation, MM = Missing Value Source: NWS Daily Summary

Daily Weather History Graph

Daily Weather History Graph

Search for Another Location

Airport or City:

Trip Planner

Search our weather history database for the weather conditions in past years. The results will help you decide how hot, cold, wet, or windy it might be!

Date:

Astronomy

May. 25, 2013 Rise Set
Actual Time 5:21 AM MST 7:29 PM MST
Civil Twilight 4:53 AM MST 7:57 PM MST
Nautical Twilight 4:18 AM MST 8:32 PM MST
Astronomical Twilight 3:41 AM MST 9:09 PM MST
Moon 8:21 PM MST (5/25) 5:51 AM MST (5/25)
Length of Visible Light 15h 04m
Length of Day
14h 08m
Waxing Gibbous, 99% of the Moon is Illuminated
May 25
Waxing Gibbous
May 31
Last Quarter
Jun 8
New
Jun 16
First Quarter
Jun 23
Full

Hourly Weather History & Observations

Time (MST) Temp. Dew Point Humidity Pressure Visibility Wind Dir Wind Speed Gust Speed Precip Events Conditions
12:53 AM 73.0 °F 21.0 °F 14% 29.79 in 10.0 mi Calm Calm - N/A   Clear
1:53 AM 72.0 °F 21.9 °F 15% 29.79 in 10.0 mi Calm Calm - N/A   Clear
2:53 AM 66.9 °F 23.0 °F 19% 29.79 in 10.0 mi Calm Calm - N/A   Clear
3:53 AM 64.9 °F 21.9 °F 19% 29.81 in 10.0 mi Calm Calm - N/A   Clear
4:53 AM 64.0 °F 21.9 °F 20% 29.82 in 10.0 mi Calm Calm - N/A   Clear
5:53 AM 64.0 °F 23.0 °F 21% 29.83 in 10.0 mi Calm Calm - N/A   Clear
6:53 AM 73.0 °F 21.0 °F 14% 29.85 in 10.0 mi East 5.8 mph - N/A   Clear
7:53 AM 77.0 °F 24.1 °F 14% 29.86 in 10.0 mi East 5.8 mph - N/A   Clear
8:53 AM 80.1 °F 21.9 °F 12% 29.87 in 10.0 mi East 5.8 mph - N/A   Clear
9:53 AM 82.0 °F 24.1 °F 12% 29.86 in 10.0 mi SE 8.1 mph - N/A   Clear
10:53 AM 86.0 °F 26.1 °F 11% 29.86 in 10.0 mi South 8.1 mph - N/A   Clear
11:53 AM 88.0 °F 24.1 °F 10% 29.86 in 10.0 mi Variable 6.9 mph - N/A   Clear
12:53 PM 89.1 °F 25.0 °F 10% 29.84 in 10.0 mi SW 8.1 mph - N/A   Clear
1:53 PM 91.9 °F 24.1 °F 9% 29.83 in 10.0 mi SW 11.5 mph - N/A   Clear
2:53 PM 91.9 °F 24.1 °F 9% 29.81 in 10.0 mi Variable 5.8 mph - N/A   Clear
3:53 PM 93.9 °F 23.0 °F 8% 29.79 in 10.0 mi SW 15.0 mph 20.7 mph N/A   Clear
4:53 PM 93.9 °F 23.0 °F 8% 29.77 in 10.0 mi WSW 10.4 mph 18.4 mph N/A   Clear
5:53 PM 93.0 °F 21.9 °F 8% 29.75 in 10.0 mi Variable 5.8 mph - N/A   Clear
6:53 PM 91.9 °F 19.0 °F 7% 29.74 in 10.0 mi West 15.0 mph 20.7 mph N/A   Clear
7:53 PM 89.1 °F 17.1 °F 7% 29.75 in 10.0 mi WSW 13.8 mph - N/A   Clear
8:53 PM 86.0 °F 19.0 °F 8% 29.77 in 10.0 mi SW 8.1 mph - N/A   Clear
9:53 PM 82.9 °F 18.0 °F 9% 29.80 in 10.0 mi SW 9.2 mph - N/A   Clear
10:53 PM 79.0 °F 18.0 °F 10% 29.80 in 8.0 mi West 6.9 mph - N/A   Clear
11:53 PM 77.0 °F 17.1 °F 10% 29.81 in 10.0 mi Calm Calm - N/A   Clear